COSMOS 2251 DEB, 33973

Orbit data source: Space-Track

COSMOS 2251 DEB, 33973 is space debris in LEO originally from a launch on Wed, 16 Jun 1993 UTC launched from the Plesetsk Missile And Space Complex (PKMTR). The debris from Iridium 33, an American commercial communications satellite, has been tracked extensively since its accidental collision with the defunct Russian satellite Cosmos 2251 in 2009. This event, occurring at high speed in low Earth orbit (LEO), generated thousands of pieces of space debris, significantly increasing the risk of further collisions. The Iridium 33 debris cloud has impacted space traffic management and orbital debris mitigation strategies, making it a subject of ongoing study in space situational awareness.

Loading next visibility...
Identifier
33973, 1993-036FG
Orbit
LEO
Country
Flag of CISCIS
Related business
Manufacturer
Unknown
Mission
Spacecraft
Bus & Motor
Unknown
Mass
Unknown
Launch date (UTC)
1993-06-16 (33 years ago)
Launch vehicle
Unknown
Launch site
Plesetsk Missile And Space Complex (PKMTR)
Object type
Payload
Rocket body
Debris
Shape & HBR
Unknown shape, 0.1 m
Radar Cross Section
Medium (>0.1 m² and <1 m²)

Expand to show TLE details & history
Last TLE update: 8 hours ago

TLE from 8 hours ago
0 COSMOS 2251 DEB
1 33973U 93036FG  26264.79664416  .00000182  00000-0  58518-4 0  9991
2 33973  74.0070 294.2782 0045119  43.4849  71.8489 14.45614390926901
Epoch: 2026-09-21T19:07Z
TLE epoch observation values (Epoch: 2026-09-21T19:07:10.055Z)
Latitude
60.02111°
Longitude
157.19847°
Altitude
739.988 km
Speed
7.496 km/s
True Right ascension
05h 38m 38s
True Declination
59° 52' 18"
Sunlit
Object was in daylight at epoch
Visualization orbit readout
Latitude
Unknown
Longitude
Unknown
Altitude
Unknown
Speed
Unknown
Apparent Right ascension
Unknown
Apparent Declination
Unknown
Sunlit
N/A
Visualization observer readout
Local Sidereal Time
19:59:52
Azimuth
Unknown
Elevation
Unknown
Doppler factor
Unknown
Orbital elements
Apogee altitude
769.73 km
Perigee altitude
705.519 km
Semi-major axis
7,115.761 km
Eccentricity
0.00451
Inclination
74.007°
RAAN
294.2782°
Arg. of periapsis
43.4849°
True anomaly
72.34106°
Mean anomaly
71.8489°
Eccentric anomaly
72.09489°
Mean motion
3.61586 °/min
Orbital period
99.56 mins
BSTAR
0.000058518

Documentation

Showing up to 5 results
|